Terug naar catalogus

CZ-4 DEB

ActiefPO
NORAD 20861·DEBRIS·🇨🇳 China

Gelanceerd Sep 3, 1990 vanaf Taiyuan Satellite Launch Center

Loading…

Volgende Passages (komende 24 uur)

TLE

VersSource: Space-Track

Epoch: Sep 14, 2026, 22:46 UTC

1 20861U 90081Z   26257.94924101  .00772229  00000-0  61311-2 0  9990
2 20861  97.9772 338.5442 0010218 281.9797  78.0317 15.68925868888293

Volg CZ-4 DEB in realtime met AllMySat

Download on the App Store